Wind_Speed
15 16 12 5 4 15 14 17 13 11 9 10 8 8 8 6 3 3 6 10 10 11 12 11 11 12 11 10 9 9 9 7 7 6 6 5 4 4 5 6 7 7 8 8 7 6 4 3 5
18 15 16 16 3 17 15 13 12 9 9 10 9 9 7 5 5 6 9 10 10 10 11 11 11 11 11 9 8 8 8 6 6 5 4 4 4 4 5 6 7 7 7 7 6 6 4 4 5
17 14 7 4 15 17 15 11 10 8 9 8 6 8 6 2 4 8 9 10 10 11 11 11 10 10 11 9 8 8 8 7 6 6 5 4 4 5 6 7 7 8 8 7 6 6 6 6 6
14 13 18 13 17 16 15 13 11 10 8 4 7 4 3 7 7 8 10 12 12 11 12 11 10 10 10 9 8 7 7 6 6 5 4 4 4 4 5 6 7 8 8 7 6 5 6 7 7
8 4 4 15 14 13 12 12 9 9 8 6 6 5 4 6 7 8 10 11 11 12 11 11 10 9 9 8 8 7 6 5 6 5 4 3 3 3 4 5 7 7 6 6 6 6 7 8 7
7 7 6 12 14 11 10 10 9 9 7 8 10 9 4 4 5 7 9 13 13 12 11 11 10 10 9 9 8 7 7 6 6 6 4 5 5 5 6 8 9 9 9 8 7 7 7 7 6
3 4 9 12 12 10 7 7 7 7 8 7 8 3 4 2 2 5 8 13 13 11 9 10 10 10 9 9 9 6 6 7 7 6 6 5 7 8 9 10 10 10 9 8 6 4 3 2 2
8 2 7 12 11 10 7 5 7 5 6 7 5 2 4 1 2 3 6 11 14 11 9 8 8 9 9 9 10 9 7 7 7 7 7 6 7 8 8 9 9 9 7 7 6 2 2 1 1
11 3 8 6 9 8 7 7 6 7 7 5 5 2 8 2 4 4 5 10 11 12 10 8 8 9 9 9 9 8 8 8 7 6 7 7 7 7 7 7 8 8 6 4 3 1 3 3 4
4 4 8 7 6 8 6 5 5 6 4 5 6 7 1 2 5 10 8 11 10 10 12 11 9 8 9 9 10 11 10 8 7 7 7 7 10 9 6 8 8 7 5 3 2 3 4 7 13
1 7 8 6 5 6 5 5 5 4 5 4 2 4 1 5 8 13 12 12 11 11 11 10 10 9 7 7 8 8 8 8 7 6 6 7 7 7 9 11 10 8 5 4 4 2 7 7 9
4 4 5 5 3 5 4 4 4 2 3 2 2 5 1 9 12 12 12 12 12 12 11 10 13 12 12 10 8 8 9 9 7 7 5 5 7 9 9 8 8 8 6 5 3 3 6 7 8
2 2 2 4 3 4 4 4 1 1 3 4 4 8 7 13 11 11 11 11 12 13 11 11 10 8 8 7 7 7 9 9 9 8 7 6 5 6 9 10 10 9 8 6 4 4 3 9 7
1 2 3 4 4 3 5 4 4 2 4 5 4 6 11 12 11 12 12 10 12 10 9 10 8 7 7 7 8 9 10 10 10 11 11 10 9 8 7 9 11 11 11 8 4 10 8 7 7
2 3 4 5 6 4 3 7 7 4 8 8 7 7 10 12 12 11 12 12 10 9 9 9 8 8 8 8 8 9 10 12 13 13 14 13 14 13 12 11 10 12 13 11 11 10 7 11 9
2 5 1 3 3 3 6 8 4 6 8 8 7 8 9 11 11 12 10 11 9 12 8 8 8 6 6 6 6 8 10 12 14 15 16 16 17 17 17 16 15 15 15 13 12 10 9 12 12
4 3 2 4 3 2 3 1 3 6 8 8 8 8 9 10 12 12 11 11 10 8 7 6 6 5 3 2 1 3 5 7 13 15 17 18 17 19 20 21 20 21 20 16 14 13 14 14 14
5 2 4 3 2 2 2 1 2 7 10 10 10 10 10 11 12 6 10 11 9 5 5 4 3 3 1 1 1 2 3 5 7 10 14 18 18 20 21 22 23 26 26 22 17 19 19 19 18
4 2 7 5 1 4 2 2 4 7 10 11 10 12 12 11 11 11 4 5 7 6 5 4 3 2 0 1 1 2 4 4 6 8 11 14 16 20 20 23 25 26 29 30 26 23 30 26 26
1 2 10 2 3 0 4 9 8 5 8 10 10 11 11 12 12 14 10 5 8 7 7 6 6 5 3 4 6 8 9 11 11 11 12 12 14 16 19 19 24 28 29 31 32 33 32 31 28
5 5 4 1 3 5 9 12 9 7 7 7 8 9 10 11 12 15 16 8 7 8 9 9 10 10 11 12 15 15 15 17 17 18 17 17 19 18 19 21 20 23 27 30 35 33 33 34 33
3 4 2 4 8 10 7 6 5 9 7 6 8 10 9 10 11 13 15 14 13 11 13 13 13 13 14 14 15 18 19 21 20 22 26 23 26 25 23 26 24 23 25 28 31 35 36 36 32
4 2 3 4 10 10 8 7 5 4 7 5 8 6 7 7 7 8 10 11 11 13 12 10 10 11 13 17 18 21 23 24 25 29 30 33 31 31 34 32 28 30 27 25 27 31 35 37 36
6 6 6 8 11 13 13 9 5 14 7 6 8 5 6 6 7 7 8 11 11 12 12 11 11 13 16 19 21 23 25 28 30 31 34 35 37 38 38 36 38 37 35 35 33 32 31 35 36
7 8 9 10 6 5 2 2 2 10 6 4 5 6 8 9 10 11 12 13 13 13 11 13 15 16 17 19 20 24 26 29 32 32 34 35 35 37 39 40 38 39 39 40 41 40 38 36 34
11 10 13 4 3 1 5 6 9 5 5 5 9 9 10 10 11 12 14 15 18 18 16 15 12 11 10 13 16 18 19 22 24 26 29 32 33 34 34 38 37 37 40 41 43 45 45 45 42
8 7 8 12 14 8 5 8 5 4 1 1 5 10 12 14 15 14 15 18 18 22 22 23 19 16 16 18 18 19 22 25 29 30 31 34 35 32 30 32 34 34 35 39 41 44 44 46 45
7 11 14 13 4 6 10 12 19 3 2 6 8 9 11 14 16 18 18 20 20 21 24 26 25 24 22 21 22 21 23 27 31 33 34 34 34 33 31 31 33 32 33 33 36 38 40 43 44
10 14 4 10 10 8 9 10 1 4 8 11 12 14 16 16 18 18 22 20 26 22 27 27 28 27 25 24 24 24 26 30 35 38 39 36 32 31 30 30 32 32 33 34 37 37 37 41 41
8 10 9 15 8 12 8 17 4 10 12 13 19 15 16 18 21 24 18 22 32 36 30 29 30 30 28 25 26 28 31 35 38 42 42 39 36 32 32 32 32 32 33 33 35 36 37 41 42
Wind_Direction
82 78 86 63 72 95 83 92 95 99 89 110 93 94 78 59 73 135 164 168 161 143 140 142 137 131 131 124 128 128 129 142 134 128 127 121 122 134 136 138 147 137 133 133 133 144 163 202 231
85 94 71 73 356 95 82 94 93 98 112 125 85 69 75 56 89 126 151 163 155 142 145 146 141 135 126 125 130 129 129 141 129 142 136 140 157 169 164 170 175 176 169 167 170 182 192 215 234
84 80 88 334 54 91 95 94 107 106 116 104 59 95 90 59 117 133 145 159 156 146 145 145 146 140 137 136 134 133 146 144 144 160 148 149 179 192 186 192 202 201 198 192 194 210 225 227 231
101 105 65 65 80 79 95 101 94 88 104 109 100 47 108 124 128 140 145 157 155 148 152 153 153 146 142 143 140 146 146 145 158 154 146 161 182 183 193 204 208 205 207 203 196 200 215 224 226
102 49 143 91 81 89 91 98 93 93 89 89 75 103 141 146 148 137 143 152 154 150 153 155 155 155 149 149 149 147 138 152 153 153 152 158 153 170 179 194 187 184 188 189 189 200 209 206 214
124 63 122 92 90 95 86 83 81 84 86 74 93 91 86 140 155 151 150 149 148 158 157 158 162 161 158 161 149 144 147 161 154 157 155 149 139 126 117 138 150 153 162 172 186 193 192 196 192
38 307 85 103 104 94 104 80 85 78 79 88 100 89 32 103 176 173 167 152 157 164 178 165 167 164 165 161 150 155 161 163 162 160 154 147 136 125 126 133 142 153 161 163 162 158 141 152 183
107 141 73 99 98 95 122 94 99 81 106 92 92 345 143 95 145 192 179 171 159 172 176 183 174 173 172 169 164 171 176 162 167 165 147 141 134 127 144 148 149 151 146 135 119 82 79 35 329
165 180 99 92 70 113 119 78 88 95 79 73 53 122 191 146 140 180 195 190 187 174 179 190 189 191 178 171 176 183 182 176 166 154 150 147 148 127 149 146 147 145 143 134 117 185 335 332 326
226 335 100 100 100 105 109 104 79 91 50 35 38 114 282 162 146 167 176 183 190 189 186 171 250 216 201 189 187 193 189 182 173 164 152 157 130 193 180 155 166 167 160 162 217 309 330 341 285
28 58 111 114 116 113 108 115 99 77 75 19 312 160 292 158 152 173 174 182 186 193 193 189 184 229 231 199 225 198 207 195 204 190 170 166 165 188 186 180 191 192 202 233 274 324 353 355 5
58 68 123 151 178 137 123 116 102 80 36 65 51 14 92 159 162 173 173 182 190 197 194 203 191 204 180 237 219 215 228 228 214 207 209 185 185 186 199 210 215 202 223 246 285 340 318 1 5
88 94 147 216 238 172 167 152 77 126 64 140 359 21 148 158 166 173 174 184 186 199 199 203 212 211 212 228 237 232 222 226 225 227 215 227 229 211 212 221 228 233 245 254 269 280 315 298 344
233 360 196 179 168 192 196 197 178 192 139 151 344 141 159 168 172 178 178 188 184 194 199 206 212 215 221 223 224 224 235 240 235 241 240 228 229 232 239 235 229 232 246 247 268 281 285 275 278
222 273 184 208 224 230 215 186 139 142 158 152 147 147 166 174 181 184 183 188 178 195 192 198 207 214 221 230 233 233 234 238 243 244 247 241 242 239 235 234 234 235 239 249 255 255 268 319 306
221 255 66 177 175 294 213 249 179 127 160 159 165 160 167 179 183 187 186 178 196 184 198 190 195 203 216 227 238 247 252 252 250 248 251 247 245 245 241 240 238 241 245 247 252 265 281 278 278
182 164 138 144 184 290 288 349 164 155 165 181 179 179 167 176 178 186 182 177 185 156 164 166 165 167 172 172 199 250 264 267 255 258 261 264 256 252 251 248 246 246 247 243 245 261 267 271 284
83 130 82 135 132 217 255 172 195 188 177 189 189 190 180 178 177 155 172 181 177 159 155 153 155 145 133 217 251 274 279 280 272 263 263 266 266 261 258 254 252 253 254 250 249 248 239 245 253
86 105 99 74 245 174 67 175 192 202 185 197 196 194 195 192 199 200 176 182 191 180 176 178 188 210 115 28 325 280 278 298 302 292 281 278 274 273 265 261 258 255 258 261 252 253 266 272 271
171 75 70 53 99 124 95 89 115 167 192 205 203 219 214 207 208 210 225 232 215 220 236 241 232 228 235 284 294 297 298 302 303 304 302 289 279 270 269 264 262 264 263 261 258 261 267 267 273
17 6 4 212 156 147 140 127 112 128 147 187 185 208 213 214 212 220 222 251 242 250 256 246 244 256 271 278 280 284 285 287 286 285 283 281 275 272 272 272 263 258 261 260 267 263 261 265 264
296 341 334 259 163 264 179 39 160 137 127 140 154 165 165 179 195 212 225 233 243 242 249 254 262 270 276 284 286 291 292 291 293 283 282 279 276 280 282 279 281 273 268 264 264 266 267 266 267
22 350 302 268 244 186 226 95 80 155 142 146 151 149 171 184 190 198 208 217 213 226 232 258 262 272 277 286 288 291 293 295 291 287 284 284 278 276 274 277 274 271 273 271 271 271 269 267 267
280 270 280 257 98 16 267 133 199 322 202 178 182 173 192 208 214 210 217 216 212 216 223 249 273 276 279 285 289 290 291 292 289 288 288 285 280 276 276 272 274 273 273 269 277 276 272 266 267
272 258 261 298 201 172 54 261 177 147 242 179 223 243 234 228 246 238 232 227 222 224 239 254 266 272 277 285 288 289 289 288 286 285 282 280 280 282 282 276 272 272 270 269 269 271 270 275 270
298 309 330 281 16 189 107 102 146 176 270 266 247 257 259 258 263 257 263 245 239 231 252 250 266 273 280 300 313 319 325 321 313 301 291 289 288 283 278 276 275 272 272 272 271 269 269 267 266
283 320 317 311 270 251 167 112 278 154 130 299 291 272 270 263 262 263 260 255 246 233 245 256 263 272 288 298 307 316 326 328 326 317 307 300 295 284 277 276 279 278 274 271 270 270 271 268 270
281 309 305 289 319 293 40 273 77 148 318 319 298 294 293 283 275 268 263 257 244 238 245 250 259 266 277 289 300 314 326 330 327 316 306 299 293 284 278 278 279 277 277 275 271 270 269 267 273
310 293 260 297 298 308 293 99 169 304 312 317 304 292 286 289 284 280 266 258 241 233 249 253 256 260 272 287 299 315 330 334 330 322 314 305 296 285 275 276 279 279 278 276 275 274 271 268 268
297 285 286 307 308 307 322 275 331 314 310 305 305 298 299 291 283 271 264 251 246 254 260 256 257 261 272 287 300 314 323 329 330 327 317 309 299 288 276 275 280 283 280 276 274 271 269 269 270
Height
3171 3170 3170 3169 3172 3168 3167 3173 3174 3177 3178 3179 3178 3180 3180 3178 3178 3183 3179 3179 3180 3182 3184 3185 3187 3188 3189 3190 3192 3193 3194 3195 3196 3197 3199 3200 3200 3201 3201 3202 3204 3205 3206 3207 3208 3209 3209 3208 3208
3172 3172 3172 3173 3171 3164 3175 3174 3177 3179 3179 3180 3179 3180 3183 3181 3179 3178 3179 3181 3182 3184 3186 3187 3188 3189 3190 3192 3193 3194 3195 3196 3197 3198 3199 3200 3201 3202 3203 3203 3204 3205 3206 3207 3209 3209 3210 3209 3209
3175 3175 3175 3173 3170 3170 3174 3177 3180 3180 3180 3181 3182 3182 3183 3182 3180 3180 3181 3182 3184 3185 3186 3187 3189 3190 3191 3192 3194 3195 3196 3197 3197 3199 3200 3201 3202 3203 3203 3204 3204 3206 3207 3208 3209 3210 3210 3210 3209
3177 3179 3180 3175 3176 3177 3178 3181 3182 3182 3182 3183 3183 3183 3181 3181 3181 3182 3182 3184 3185 3186 3187 3188 3190 3191 3192 3193 3194 3196 3196 3197 3198 3198 3199 3201 3202 3202 3203 3204 3204 3206 3207 3208 3209 3210 3211 3211 3210
3179 3178 3178 3180 3180 3181 3182 3183 3184 3184 3184 3184 3184 3184 3181 3181 3181 3182 3183 3185 3186 3187 3187 3189 3190 3191 3192 3193 3195 3196 3197 3198 3199 3199 3200 3202 3202 3202 3202 3202 3204 3205 3207 3208 3209 3210 3211 3211 3211
3181 3180 3179 3181 3182 3184 3185 3185 3186 3186 3186 3185 3186 3185 3183 3183 3183 3183 3184 3186 3190 3190 3188 3189 3190 3191 3192 3193 3196 3196 3197 3198 3199 3200 3201 3202 3202 3202 3203 3203 3205 3206 3207 3209 3209 3210 3211 3211 3211
3180 3179 3183 3182 3184 3186 3187 3187 3187 3187 3187 3187 3187 3188 3185 3185 3185 3185 3186 3188 3192 3193 3188 3189 3190 3192 3193 3194 3196 3197 3198 3199 3200 3201 3202 3202 3203 3204 3205 3206 3206 3208 3209 3209 3211 3211 3212 3212 3211
3183 3182 3182 3183 3184 3188 3189 3189 3188 3188 3188 3187 3188 3188 3185 3184 3185 3185 3186 3188 3192 3194 3195 3190 3191 3193 3194 3194 3196 3197 3198 3199 3201 3202 3203 3204 3205 3206 3207 3207 3208 3210 3211 3211 3212 3211 3212 3212 3211
3184 3184 3184 3185 3186 3188 3190 3189 3190 3190 3189 3189 3188 3189 3186 3184 3184 3185 3187 3188 3190 3193 3197 3197 3193 3192 3194 3195 3197 3198 3199 3201 3202 3203 3203 3205 3207 3208 3209 3210 3211 3212 3213 3213 3213 3212 3212 3211 3211
3184 3181 3185 3188 3189 3189 3190 3190 3191 3191 3191 3189 3188 3187 3184 3184 3184 3186 3186 3188 3190 3192 3197 3198 3198 3194 3194 3196 3196 3198 3199 3200 3202 3203 3204 3206 3207 3210 3210 3212 3212 3213 3214 3214 3213 3213 3212 3210 3192
3185 3186 3187 3189 3190 3190 3190 3191 3192 3191 3191 3191 3189 3186 3184 3184 3185 3187 3188 3190 3191 3192 3194 3196 3202 3200 3197 3198 3199 3199 3200 3201 3202 3204 3205 3206 3207 3209 3212 3212 3213 3214 3215 3215 3214 3214 3213 3212 3208
3182 3187 3188 3189 3190 3190 3191 3191 3191 3192 3191 3192 3188 3185 3184 3184 3187 3189 3191 3192 3194 3193 3194 3195 3197 3198 3201 3199 3199 3200 3201 3203 3203 3205 3206 3207 3208 3209 3211 3214 3214 3214 3215 3214 3214 3213 3211 3213 3212
3189 3190 3189 3189 3189 3190 3190 3190 3190 3191 3191 3190 3187 3185 3185 3187 3189 3191 3193 3193 3195 3193 3194 3195 3195 3196 3198 3199 3199 3200 3201 3203 3204 3205 3206 3208 3209 3209 3210 3211 3212 3213 3213 3213 3214 3214 3214 3213 3214
3190 3189 3189 3189 3189 3188 3188 3188 3188 3190 3190 3188 3187 3186 3187 3189 3190 3191 3192 3193 3193 3192 3193 3194 3195 3195 3196 3198 3198 3199 3200 3201 3202 3204 3205 3206 3207 3209 3210 3211 3212 3212 3212 3213 3213 3213 3214 3213 3212
3189 3187 3187 3187 3186 3187 3190 3191 3188 3187 3189 3189 3189 3189 3189 3190 3191 3191 3192 3192 3192 3192 3193 3193 3194 3195 3195 3196 3197 3198 3199 3200 3201 3202 3203 3205 3206 3207 3208 3209 3210 3211 3212 3212 3212 3212 3213 3213 3212
3188 3186 3179 3187 3186 3185 3187 3170 3186 3186 3189 3190 3191 3190 3189 3190 3191 3192 3191 3191 3192 3194 3193 3193 3194 3194 3195 3195 3196 3197 3197 3198 3199 3200 3201 3202 3203 3204 3206 3207 3208 3209 3209 3210 3210 3211 3213 3213 3211
3187 3185 3185 3185 3186 3186 3185 3183 3186 3186 3190 3191 3191 3190 3191 3191 3191 3191 3191 3192 3194 3193 3194 3194 3195 3195 3195 3195 3196 3196 3196 3196 3197 3198 3198 3198 3200 3201 3202 3203 3204 3205 3206 3207 3209 3212 3211 3211 3208
3187 3188 3185 3185 3187 3187 3185 3185 3185 3187 3189 3190 3191 3191 3191 3192 3192 3192 3192 3194 3194 3194 3195 3195 3196 3196 3196 3196 3196 3196 3195 3195 3195 3196 3196 3196 3196 3197 3198 3199 3201 3201 3201 3203 3205 3206 3206 3206 3205
3186 3184 3184 3185 3186 3184 3185 3185 3186 3187 3188 3190 3191 3191 3192 3193 3194 3193 3193 3194 3195 3195 3195 3196 3196 3196 3196 3196 3196 3196 3196 3196 3195 3195 3195 3194 3194 3194 3194 3195 3195 3197 3197 3198 3199 3201 3199 3199 3198
3185 3185 3183 3188 3186 3184 3184 3185 3186 3187 3188 3190 3191 3192 3193 3193 3195 3195 3193 3194 3195 3195 3195 3196 3196 3196 3196 3196 3196 3196 3196 3196 3196 3195 3194 3193 3191 3190 3189 3190 3190 3190 3191 3192 3193 3193 3194 3194 3194
3186 3184 3185 3185 3186 3185 3184 3185 3187 3188 3189 3190 3191 3192 3193 3194 3194 3195 3194 3193 3194 3194 3194 3194 3194 3195 3195 3195 3194 3194 3194 3194 3194 3192 3191 3190 3189 3187 3187 3185 3185 3184 3185 3186 3185 3186 3188 3187 3188
3189 3186 3185 3184 3185 3185 3183 3187 3186 3186 3189 3191 3191 3191 3193 3193 3193 3194 3193 3192 3192 3193 3193 3193 3193 3193 3193 3193 3192 3191 3191 3190 3189 3188 3186 3186 3184 3184 3183 3182 3181 3181 3180 3179 3180 3179 3179 3180 3182
3188 3186 3185 3182 3177 3179 3180 3183 3189 3190 3188 3189 3190 3192 3193 3193 3193 3193 3193 3193 3192 3193 3192 3192 3192 3192 3191 3190 3190 3189 3188 3187 3185 3183 3181 3180 3179 3178 3177 3176 3176 3175 3175 3174 3173 3173 3172 3173 3174
3187 3187 3184 3180 3176 3194 3182 3181 3195 3191 3188 3187 3187 3190 3192 3193 3193 3193 3193 3193 3192 3191 3191 3191 3190 3190 3189 3188 3186 3186 3184 3182 3180 3178 3174 3172 3170 3170 3169 3169 3167 3168 3168 3168 3167 3167 3166 3165 3165
3187 3185 3190 3178 3174 3176 3177 3176 3184 3186 3184 3187 3189 3188 3188 3190 3191 3192 3192 3192 3191 3189 3188 3188 3187 3187 3186 3184 3182 3180 3178 3176 3173 3171 3168 3166 3163 3160 3158 3160 3160 3158 3157 3158 3158 3157 3157 3157 3157
3183 3181 3175 3169 3173 3167 3173 3174 3181 3183 3186 3186 3188 3188 3189 3189 3189 3189 3188 3187 3187 3186 3184 3184 3183 3183 3182 3180 3178 3175 3172 3170 3167 3164 3161 3158 3155 3153 3152 3149 3148 3149 3149 3148 3147 3147 3147 3147 3146
3187 3185 3182 3177 3168 3168 3165 3172 3175 3181 3183 3185 3186 3186 3186 3186 3186 3186 3186 3185 3183 3180 3179 3179 3179 3178 3177 3176 3174 3172 3169 3166 3162 3158 3153 3149 3146 3144 3143 3142 3140 3139 3139 3139 3138 3137 3136 3136 3137
3187 3186 3182 3175 3173 3171 3169 3174 3176 3182 3183 3183 3185 3184 3183 3183 3182 3182 3182 3182 3180 3176 3173 3173 3173 3173 3172 3170 3169 3167 3164 3161 3157 3153 3148 3142 3138 3135 3134 3133 3132 3131 3130 3130 3128 3128 3128 3126 3126
3186 3182 3181 3180 3179 3174 3172 3174 3179 3181 3182 3182 3182 3182 3181 3180 3179 3177 3176 3178 3173 3172 3167 3168 3167 3167 3166 3164 3162 3159 3156 3152 3148 3145 3140 3135 3130 3127 3126 3125 3124 3122 3121 3120 3119 3118 3118 3117 3118
3186 3185 3185 3180 3180 3176 3179 3178 3175 3179 3180 3180 3179 3178 3177 3175 3174 3171 3172 3171 3165 3164 3162 3163 3162 3160 3159 3157 3155 3152 3148 3145 3141 3137 3133 3128 3123 3120 3117 3116 3115 3113 3112 3111 3110 3109 3109 3107 3106